Вернуться в каталог

ATLAS 5 CENTAUR R/B

АктивенMEO
NORAD 45984·ROCKET BODY·🇺🇸 United States

Запущен Jul 30, 2020 с Cape Canaveral Space Force Station

Loading…

Ближайшие Пролёты (ближайшие 24 часа)

TLE

УстаревшееSource: Space-Track

Эпоха: Jul 30, 2020, 13:51 UTC

1 45984U 20052B   20212.57736904 -.00000062  00000-0  00000+0 0  9995
2 45984  69.7373 332.3922 0065000 250.3442 134.2527  2.66257239    08

Отслеживайте ATLAS 5 CENTAUR R/B в реальном времени с AllMySat

Download on the App Store